Location: Arcusa
(42.3167°N, 0.0833°W)
Time: 08:54:33
(UTC+00:00)

CZ-4 R/B - Pass Details

Date: 25 January 2020
Orbit: 534 x 597 km, 97.7° (Epoch: 16 February)

Event Time Altitude Azimuth Distance (km) Brightness Sun altitude
Rises 06:37:44 0° 22° (NNE) 2,849 5.0 -8.2°
Reaches altitude 10° 06:40:07 10° 32° (NNE) 1,940 4.3 -7.8°
Maximum altitude 06:43:55 32° 97° (E) 1,024 3.6 -7.2°
Drops below altitude 10° 06:47:39 10° 161° (SSE) 1,909 4.7 -6.5°
Sets 06:49:57 0° 171° (S) 2,795 5.4 -6.1°
